Location: *
(41.7492°S, 135.4150°W)
Time: 22:55:22
(UTC+00:00)

NOSS 3-4 (A) - Pass Details

Date: 20 September 2021
Orbit: 869 x 1343 km, 63.4° (Epoch: 25 October)

Event Time Altitude Azimuth Distance (km) Brightness Sun altitude
Rises 13:27:25 0° 226° (SW) 3,937 6.4 -16.8°
Enters shadow 13:29:04 - 231° (SW) 3,405 6.0 -16.5°
Exits shadow 13:34:58 22° 277° (W) 2,040 4.6 -15.4°
Maximum altitude 13:35:47 23° 287° (WNW) 1,994 4.5 -15.2°
Drops below altitude 10° 13:40:25 10° 337° (NNW) 2,643 5.4 -14.4°
Sets 13:43:23 0° 351° (N) 3,525 6.2 -13.8°
